Location: Black Forest
(43.4794°N, 75.0081°W)
Time: 20:24:15
(UTC-04:00)

ISS - Visible Passes

Search period start: 22 March 2017 00:00
Search period end: 01 April 2017 00:00
Orbit: 399 x 409 km, 51.6° (Epoch: 23 March)

Date Brightness Start Highest point End Pass type
(mag) Time Alt. Az. Time Alt. Az. Time Alt. Az.
22 Mar -3.0 04:57:42 51° E 04:57:42 51° E 05:00:20 10° ESE visible
22 Mar -2.0 06:31:03 10° W 06:33:11 16° SW 06:35:18 10° S visible
23 Mar -2.9 05:40:53 28° SW 05:41:03 29° SW 05:43:57 10° SSE visible
24 Mar -1.2 04:51:37 13° SE 04:51:37 13° SE 04:52:03 10° SE visible
26 Mar -1.6 21:17:30 10° SW 21:18:26 17° SW 21:18:26 17° SW visible
27 Mar -2.9 20:25:34 10° SSW 20:28:26 29° SE 20:29:21 24° ESE visible
27 Mar -0.7 22:01:41 10° W 22:02:04 13° W 22:02:04 13° W visible
28 Mar -3.6 21:09:07 10° WSW 21:12:22 68° NNW 21:12:42 61° NNE visible
29 Mar -3.9 20:16:45 10° SW 20:19:58 67° SE 20:23:05 11° ENE visible
29 Mar -1.4 21:53:49 10° WNW 21:55:46 23° NW 21:55:46 23° NW visible
30 Mar -2.4 21:01:02 10° W 21:04:06 37° NNW 21:05:56 20° NE visible
31 Mar -3.2 20:08:23 10° WSW 20:11:35 57° NNW 20:14:49 10° NE visible
31 Mar -1.5 21:45:58 10° WNW 21:48:33 21° N 21:48:35 21° N visible
